sat.trackr.live / text

‹ back to catalog

STARLINK-34456

NORAD 64439 · 2025-130B

PAYLOAD ACTIVE UNKNOWN

§ Identity

Operator
Country
US
Launch date
2025-06-18
Launch site
AFETR
Launch vehicle
Mass (kg)
RCS (m²)

Purposes: comms

External: N2YO · Heavens-Above · Gunter

§ Orbital elements

Epoch: 2026-09-20T11:11:47.994144Z

Period
93.85 min
Inclination
53.1577°
Eccentricity
0.0002313
Mean motion
15.34397673 rev/d
Perigee alt
461.1 km
Apogee alt
464.3 km
Semi-major
6,840.8 km
B*
7.6914e-4
RAAN
259.6118°
Arg perigee
52.7386°
Mean anomaly
307.3827°
Rev number
7,058

§ Raw data

STARLINK-344561 64439U 25130B   26263.46652771  .00025698  00000+0  76914-3 0  99932 64439  53.1577 259.6118 0002313  52.7386 307.3827 15.34397673 70586

JSON: /api/v1/satellites/64439 · /tle

For live sub-satellite position, see the globe view (requires WebGL).

§ Visibility from observer

Set your observer location to see the next 7 days of passes ≥ 10°. The values pass through the URL so the page stays shareable.

No JS? Fill the form by hand. The geolocation button needs JavaScript.